Tracking 29892 objects as of 21-Nov-2024
HD Live streaming from Space Station
objects crossing your sky now

FENGYUN 1C DEB

Track FENGYUN 1C DEB now!
10-day predictions


NORAD ID: 36254
Int'l Code: 1999-025DWF
Perigee: 577.9 km
Apogee: 680.9 km
Inclination: 99.6 °
Period: 97.2 minutes
Semi major axis: 7000 km
RCS: 0.0115 m2 (small)
Launch date: May 10, 1999
Source: People's Republic of China (PRC)
Launch site: Taiyaun Space Center, China (TSC)

Note: This is SATELLITE DEBRIS
Your satellite tracking list
Your tracking list is empty




NASA's NSSDC Master Catalog

Two Line Element Set (TLE):
1 36254U 99025DWF 24312.34555999  .00050085  00000-0  59562-2 0  9993
2 36254  99.5584 172.9458 0073566 237.7087 121.6981 14.82239075836296
Source of the keplerian elements: AFSPC